Lid_Strength_Index
16 20 22 21 19 18 19 20 21 18 16 18 19 18 16 15 15 16 16 15 15 14 13 12 11 11 11 10 10 9 9 9 8 9 8 8 8 7 7 6 6 4 5 6
19 22 19 17 17 18 19 20 20 18 17 18 19 18 16 15 15 15 15 15 15 14 13 12 12 12 11 11 10 10 9 8 8 8 8 7 7 7 6 6 6 5 5 5
20 19 17 17 19 19 19 20 21 20 18 18 19 20 17 16 15 15 14 14 14 13 13 13 13 12 11 11 10 9 8 8 8 8 7 7 7 7 8 8 8 7 6 6
20 19 18 19 19 19 21 18 18 19 21 22 19 22 20 17 17 15 15 15 14 13 13 13 12 12 11 10 10 10 9 8 7 7 8 9 9 10 9 8 7 7 6 6
21 21 20 20 19 18 19 18 20 19 22 23 22 24 20 18 18 17 16 14 14 13 13 13 12 11 10 10 11 10 9 8 8 8 8 9 9 9 9 8 8 7 6 6
21 18 19 19 18 18 17 19 20 21 22 26 22 22 20 19 17 17 15 14 14 14 13 13 12 11 11 10 10 10 9 9 8 8 8 9 9 9 10 9 9 9 8 7
21 21 19 18 20 18 19 21 24 25 25 24 21 22 19 17 16 15 15 14 14 14 13 13 13 12 11 11 11 10 10 9 9 9 8 8 9 9 10 10 10 9 9 8
23 23 20 18 20 21 21 21 23 26 24 23 21 22 18 15 15 14 14 14 14 13 13 13 12 12 12 11 11 11 10 10 9 9 8 8 8 8 9 9 9 9 9 9
24 21 19 18 18 19 20 23 20 24 25 25 22 20 16 15 15 16 15 15 14 14 13 13 12 12 12 12 11 11 11 10 9 8 9 9 9 9 9 9 9 9 9 8
20 23 20 19 18 18 20 18 22 23 28 29 22 20 18 17 16 16 16 15 14 14 13 13 12 12 12 12 11 11 10 10 9 9 9 10 10 10 9 8 8 8 8 6
24 22 20 20 22 21 21 22 22 23 22 25 25 22 17 16 16 16 16 14 14 14 13 13 13 12 12 12 12 11 10 10 9 10 10 10 10 10 9 8 6 5 5 4
19 23 23 22 20 19 19 20 21 25 25 23 22 23 15 16 15 16 15 14 14 13 13 14 13 13 12 12 12 11 10 11 10 10 10 9 9 9 8 6 5 4 4 4
20 24 28 23 22 21 24 20 19 20 21 26 26 21 16 16 16 16 16 15 14 14 14 13 13 13 13 12 12 11 11 11 9 10 10 9 9 8 7 6 6 5 5 5
16 21 22 23 23 24 26 25 20 23 27 23 22 18 15 15 15 14 14 15 14 14 14 14 14 14 13 12 12 12 11 11 11 11 10 9 9 8 7 6 6 6 6 7
20 26 24 23 21 23 23 24 22 22 20 23 18 20 16 15 15 15 15 14 14 14 14 14 14 14 13 12 12 12 11 11 11 11 10 10 9 8 7 7 8 7 7 7
19 27 26 27 21 21 23 22 20 20 20 20 19 20 15 15 14 15 15 15 15 14 14 14 13 14 12 12 12 12 13 12 12 12 11 11 10 9 8 9 8 8 8 8
21 24 28 29 22 23 26 23 21 21 20 19 22 18 15 16 16 16 15 15 15 14 14 14 14 14 12 13 12 13 13 12 12 12 12 13 12 11 11 10 10 11 11 10
21 23 24 29 29 30 18 19 20 19 18 18 18 17 16 16 15 15 14 14 14 14 14 14 14 13 13 13 14 14 14 12 13 13 13 13 12 13 12 12 12 12 12 12
18 19 23 26 33 23 20 19 20 21 19 17 17 16 15 15 16 15 14 14 14 14 14 14 14 13 13 14 14 14 14 13 13 13 13 13 13 13 12 13 13 13 13 14
18 18 21 29 28 29 20 19 17 19 20 15 16 16 16 16 19 16 14 14 14 14 14 14 14 13 14 15 15 14 14 14 14 13 13 13 13 13 13 14 14 13 14 14
24 23 22 23 25 25 19 18 18 21 16 16 16 15 16 17 15 14 14 15 14 14 14 14 14 14 14 14 14 14 14 14 14 14 13 14 13 13 14 14 14 14 14 15
22 23 25 24 26 27 18 18 19 15 16 16 17 16 16 15 15 15 14 15 15 15 16 15 14 14 14 15 14 15 15 14 17 15 15 15 14 13 13 14 14 14 15 15
21 19 22 21 21 17 16 16 15 16 16 16 16 15 15 15 15 15 15 16 16 16 15 15 14 16 19 19 17 15 14 14 17 17 15 15 14 14 14 14 14 14 15 16
20 17 19 20 16 18 17 15 15 15 16 15 16 16 15 15 15 15 15 16 16 16 16 16 15 15 17 17 16 15 15 18 20 19 16 15 13 13 13 14 14 14 15 15
16 17 18 19 16 16 16 16 14 14 15 16 15 15 15 15 15 15 15 15 15 15 16 16 15 15 15 16 17 18 18 19 13 17 19 17 17 15 13 13 13 13 13 14
16 17 18 17 15 14 13 13 13 15 14 14 15 15 15 15 15 15 15 14 15 16 16 16 15 15 15 15 15 16 18 18 17 14 18 18 16 17 16 14 13 11 11 12